Weather History for KBKD - October, 2013

Change the Weather History Date:

Thursday, October 10, 2013

  Actual Average (KABI) Record (KABI)
Temperature  
Mean Temperature 74 °F 68 °F  
Max Temperature 85 °F 79 °F 96 °F (1921)
Min Temperature 64 °F 56 °F 36 °F (1990)
Degree Days  
Heating Degree Days 0 2  
Month to date heating degree days 16  
Since 1 July heating degree days 27  
Cooling Degree Days 10 5  
Month to date cooling degree days 56  
Year to date cooling degree days 2327  
Growing Degree Days 24 (Base 50)    
Moisture  
Dew Point 57 °F    
Average Humidity 56    
Maximum Humidity 81    
Minimum Humidity 38    
Precipitation  
Precipitation 0.00 in 0.10 in 0.99 in (1938)
Month to date precipitation 0.90  
Year to date precipitation 20.10  
Sea Level Pressure  
Sea Level Pressure 29.93 in    
Wind  
Wind Speed 13 mph (SSE)    
Max Wind Speed 20 mph    
Max Gust Speed 29 mph    
Visibility 10 miles    
Events      
T = Trace of Precipitation, MM = Missing Value Source: NWS Daily Summary

Daily Weather History Graph

Daily Weather History Graph

Search for Another Location

Airport or City:

Trip Planner

Search our weather history database for the weather conditions in past years. The results will help you decide how hot, cold, wet, or windy it might be!

Date:

Astronomy

Oct. 10, 2013 Rise Set
Actual Time 7:36 AM CDT 7:08 PM CDT
Civil Twilight 7:11 AM CDT 7:32 PM CDT
Nautical Twilight 6:42 AM CDT 8:01 PM CDT
Astronomical Twilight 6:14 AM CDT 8:30 PM CDT
Moon 1:17 PM CDT (10/10) 11:59 PM CDT (10/10)
Length of Visible Light 12h 21m
Length of Day
11h 32m
Waxing Crescent, 36% of the Moon is Illuminated
Oct 10
Waxing Crescent
Oct 11
First Quarter
Oct 18
Full
Oct 26
Last Quarter
Nov 3
New

Hourly Weather History & Observations

Time (CDT) Temp. Heat Index Dew Point Humidity Pressure Visibility Wind Dir Wind Speed Gust Speed Precip Events Conditions
12:15 AM 70.7 °F - 51.4 °F 50% 29.99 in 10.0 mi SSE 12.7 mph 19.6 mph N/A   Clear
12:35 AM 69.8 °F - 51.8 °F 53% 30.00 in 10.0 mi SSE 11.5 mph 18.4 mph N/A   Clear
12:55 AM 69.3 °F - 52.2 °F 54% 29.99 in 10.0 mi SSE 11.5 mph 18.4 mph N/A   Clear
1:15 AM 68.9 °F - 52.5 °F 56% 29.98 in 10.0 mi SSE 13.8 mph 18.4 mph N/A   Clear
1:35 AM 68.4 °F - 52.9 °F 58% 29.98 in 10.0 mi SSE 13.8 mph - N/A   Clear
1:55 AM 68.2 °F - 53.1 °F 58% 29.99 in 10.0 mi SSE 12.7 mph 19.6 mph N/A   Clear
2:15 AM 68.0 °F - 53.2 °F 59% 29.99 in 10.0 mi SSE 11.5 mph 17.3 mph N/A   Clear
2:35 AM 67.8 °F - 53.6 °F 60% 29.99 in 10.0 mi SSE 12.7 mph 19.6 mph N/A   Clear
2:55 AM 67.3 °F - 53.6 °F 61% 29.99 in 10.0 mi SSE 12.7 mph 17.3 mph N/A   Clear
3:15 AM 67.1 °F - 53.8 °F 62% 29.99 in 10.0 mi SSE 11.5 mph - N/A   Clear
3:35 AM 67.3 °F - 54.5 °F 63% 29.99 in 10.0 mi SSE 11.5 mph - N/A   Clear
3:55 AM 67.1 °F - 54.5 °F 64% 29.98 in 10.0 mi SSE 9.2 mph - N/A   Clear
4:15 AM 67.1 °F - 55.0 °F 65% 29.98 in 10.0 mi SSE 12.7 mph 17.3 mph N/A   Clear
4:35 AM 66.6 °F - 55.4 °F 67% 29.98 in 10.0 mi SSE 11.5 mph - N/A   Clear
4:55 AM 66.4 °F - 55.6 °F 68% 29.97 in 10.0 mi SSE 10.4 mph 16.1 mph N/A   Clear
5:15 AM 66.4 °F - 55.8 °F 69% 29.98 in 10.0 mi SSE 12.7 mph 18.4 mph N/A   Clear
5:35 AM 66.4 °F - 56.3 °F 70% 29.98 in 10.0 mi SSE 10.4 mph 17.3 mph N/A   Clear
5:55 AM 66.2 °F - 56.7 °F 71% 29.98 in 10.0 mi SSE 11.5 mph 17.3 mph N/A   Clear
6:15 AM 65.7 °F - 56.8 °F 73% 29.99 in 10.0 mi SSE 10.4 mph - N/A   Clear
6:35 AM 65.7 °F - 57.2 °F 74% 29.98 in 10.0 mi SSE 10.4 mph 16.1 mph N/A   Clear
6:55 AM 65.3 °F - 57.6 °F 76% 29.98 in 10.0 mi SSE 10.4 mph - N/A   Clear
7:15 AM 65.3 °F - 58.1 °F 77% 29.99 in 10.0 mi SSE 8.1 mph 17.3 mph N/A   Clear
7:35 AM 64.9 °F - 58.6 °F 80% 30.00 in 10.0 mi South 11.5 mph 17.3 mph N/A   Clear
7:55 AM 64.9 °F - 59.0 °F 81% 30.00 in 10.0 mi South 9.2 mph - N/A   Clear
8:15 AM 65.5 °F - 59.5 °F 81% 30.00 in 10.0 mi South 6.9 mph - N/A   Clear
8:35 AM 66.9 °F - 59.9 °F 78% 30.01 in 10.0 mi South 9.2 mph - N/A   Clear
8:55 AM 68.4 °F - 60.3 °F 75% 30.01 in 10.0 mi South 9.2 mph 16.1 mph N/A   Clear
9:15 AM 69.8 °F - 60.4 °F 72% 30.02 in 10.0 mi SSE 11.5 mph - N/A   Clear
9:35 AM 71.1 °F - 60.6 °F 69% 30.02 in 10.0 mi South 11.5 mph - N/A   Clear
9:55 AM 72.7 °F - 60.8 °F 66% 30.01 in 10.0 mi SSE 12.7 mph 21.9 mph N/A   Clear
10:15 AM 73.8 °F - 60.8 °F 64% 30.01 in 10.0 mi South 16.1 mph 20.7 mph N/A   Clear
10:35 AM 75.2 °F - 60.8 °F 61% 30.00 in 10.0 mi South 13.8 mph 21.9 mph N/A   Clear
10:55 AM 76.8 °F - 60.8 °F 58% 30.00 in 10.0 mi South 15.0 mph 23.0 mph N/A   Clear
11:15 AM 77.5 °F - 60.1 °F 55% 30.00 in 10.0 mi SSW 16.1 mph 19.6 mph N/A   Clear
11:35 AM 79.3 °F - 59.4 °F 50% 30.00 in 10.0 mi SSW 17.3 mph 20.7 mph N/A   Clear
11:55 AM 80.1 °F 80.8 °F 59.4 °F 49% 29.99 in 10.0 mi SSW 15.0 mph 23.0 mph N/A   Clear
12:15 PM 81.0 °F 81.3 °F 59.0 °F 47% 29.99 in 10.0 mi South 15.0 mph 28.8 mph N/A   Clear
12:35 PM 81.1 °F 81.5 °F 59.0 °F 47% 29.98 in 10.0 mi South 15.0 mph 24.2 mph N/A   Clear
12:55 PM 81.7 °F 82.0 °F 59.4 °F 47% 29.97 in 10.0 mi South 15.0 mph 23.0 mph N/A   Clear
1:15 PM 81.9 °F 81.9 °F 58.5 °F 45% 29.96 in 10.0 mi SSE 17.3 mph 23.0 mph N/A   Clear
1:35 PM 82.8 °F 82.7 °F 58.8 °F 44% 29.95 in 10.0 mi SSE 13.8 mph 23.0 mph N/A   Clear
1:55 PM 82.6 °F 82.3 °F 58.3 °F 43% 29.93 in 10.0 mi South 15.0 mph 23.0 mph N/A   Clear
2:15 PM 83.5 °F 83.1 °F 57.9 °F 42% 29.92 in 10.0 mi SSE 15.0 mph 21.9 mph N/A   Clear
2:35 PM 83.3 °F 82.8 °F 57.0 °F 41% 29.91 in 10.0 mi South 13.8 mph 21.9 mph N/A   Clear
2:55 PM 84.2 °F 83.5 °F 57.6 °F 40% 29.90 in 10.0 mi SSE 16.1 mph 21.9 mph N/A   Clear
3:15 PM 83.7 °F 83.1 °F 57.7 °F 41% 29.89 in 10.0 mi SSE 16.1 mph 26.5 mph N/A   Clear
3:35 PM 84.4 °F 83.5 °F 57.2 °F 39% 29.89 in 10.0 mi South 16.1 mph 23.0 mph N/A   Clear
3:55 PM 84.4 °F 83.7 °F 57.7 °F 40% 29.88 in 10.0 mi SE 9.2 mph 21.9 mph N/A   Clear
4:15 PM 85.5 °F 84.5 °F 57.2 °F 38% 29.88 in 10.0 mi SSE 19.6 mph 26.5 mph N/A   Clear
4:35 PM 84.4 °F 83.5 °F 56.7 °F 39% 29.87 in 10.0 mi SSE 18.4 mph 27.6 mph N/A   Clear
4:55 PM 84.4 °F 83.5 °F 56.7 °F 39% 29.86 in 10.0 mi SSE 15.0 mph 24.2 mph N/A   Clear
5:15 PM 84.7 °F 83.7 °F 56.7 °F 38% 29.85 in 10.0 mi SSE 18.4 mph 24.2 mph N/A   Clear
5:35 PM 83.8 °F 83.0 °F 56.7 °F 39% 29.85 in 10.0 mi SSE 16.1 mph 21.9 mph N/A   Clear
5:55 PM 83.7 °F 83.0 °F 57.2 °F 40% 29.84 in 10.0 mi South 18.4 mph 24.2 mph N/A   Clear
6:15 PM 82.9 °F 82.6 °F 57.9 °F 42% 29.84 in 10.0 mi SSE 17.3 mph 24.2 mph N/A   Clear
6:35 PM 82.0 °F 82.0 °F 58.1 °F 44% 29.84 in 10.0 mi SSE 16.1 mph 24.2 mph N/A   Clear
6:55 PM 81.5 °F 81.6 °F 58.1 °F 45% 29.84 in 10.0 mi SSE 13.8 mph 27.6 mph N/A   Clear
7:15 PM 80.2 °F 80.7 °F 58.5 °F 47% 29.84 in 10.0 mi SSE 12.7 mph 17.3 mph N/A   Clear
7:35 PM 79.3 °F - 58.6 °F 49% 29.84 in 10.0 mi SSE 11.5 mph - N/A   Clear
7:55 PM 78.8 °F - 58.6 °F 50% 29.84 in 10.0 mi SE 13.8 mph 19.6 mph N/A   Clear
8:15 PM 78.3 °F - 59.0 °F 51% 29.84 in 10.0 mi SE 11.5 mph 18.4 mph N/A   Clear
8:35 PM 77.7 °F - 59.0 °F 52% 29.84 in 10.0 mi SE 13.8 mph 18.4 mph N/A   Clear
8:55 PM 77.2 °F - 58.8 °F 53% 29.84 in 10.0 mi SSE 12.7 mph 20.7 mph N/A   Clear
9:15 PM 77.0 °F - 59.0 °F 54% 29.84 in 10.0 mi SSE 15.0 mph 18.4 mph N/A   Clear
9:35 PM 77.0 °F - 59.0 °F 54% 29.84 in 10.0 mi SSE 17.3 mph 21.9 mph N/A   Clear
9:55 PM 76.8 °F - 59.0 °F 54% 29.85 in 10.0 mi SSE 15.0 mph 26.5 mph N/A   Clear
10:15 PM 76.3 °F - 59.0 °F 55% 29.85 in 10.0 mi SSE 12.7 mph 23.0 mph N/A   Clear
10:35 PM 76.1 °F - 59.0 °F 55% 29.85 in 10.0 mi SSE 13.8 mph 25.3 mph N/A   Clear
10:55 PM 75.7 °F - 59.0 °F 56% 29.85 in 10.0 mi SSE 15.0 mph 21.9 mph N/A   Clear
11:15 PM 75.9 °F - 58.6 °F 55% 29.85 in 10.0 mi SSE 12.7 mph 23.0 mph N/A   Clear
11:35 PM 75.4 °F - 58.6 °F 56% 29.84 in 10.0 mi SSE 16.1 mph 25.3 mph N/A   Clear
11:55 PM 75.2 °F - 58.8 °F 57% 29.84 in 10.0 mi South 16.1 mph 24.2 mph N/A   Clear